Year,Month,Day,Hour,Minute,Value (Times are PST for temperature in C)
2015,09,12,00,00,14.60
2015,09,12,00,01,14.60
2015,09,12,00,02,14.60
2015,09,12,00,03,14.60
2015,09,12,00,04,14.60
2015,09,12,00,05,14.60
2015,09,12,00,06,14.60
2015,09,12,00,07,14.60
2015,09,12,00,08,14.60
2015,09,12,00,09,14.50
2015,09,12,00,10,14.50
2015,09,12,00,11,14.50
2015,09,12,00,12,14.40
2015,09,12,00,13,14.40
2015,09,12,00,14,14.40
2015,09,12,00,15,14.40
2015,09,12,00,16,14.40
2015,09,12,00,17,14.50
2015,09,12,00,18,14.50
2015,09,12,00,19,14.50
2015,09,12,00,20,14.50
2015,09,12,00,21,14.50
2015,09,12,00,22,14.50
2015,09,12,00,23,14.50
2015,09,12,00,24,14.50
2015,09,12,00,25,14.40
2015,09,12,00,26,14.40
2015,09,12,00,27,14.40
2015,09,12,00,28,14.40
2015,09,12,00,29,14.30
2015,09,12,00,30,14.30
2015,09,12,00,31,14.30
2015,09,12,00,32,14.30
2015,09,12,00,33,14.30
2015,09,12,00,34,14.30
2015,09,12,00,35,14.20
2015,09,12,00,36,14.20
2015,09,12,00,37,14.20
2015,09,12,00,38,14.10
2015,09,12,00,39,14.10
2015,09,12,00,40,14.10
2015,09,12,00,41,14.00
2015,09,12,00,42,14.00
2015,09,12,00,43,13.90
2015,09,12,00,44,13.90
2015,09,12,00,45,13.90
2015,09,12,00,46,13.90
2015,09,12,00,47,13.80
2015,09,12,00,48,13.80
2015,09,12,00,49,13.80
2015,09,12,00,50,13.70
2015,09,12,00,51,13.80
2015,09,12,00,52,13.80
2015,09,12,00,53,13.80
2015,09,12,00,54,13.80
2015,09,12,00,55,13.80
2015,09,12,00,56,13.90
2015,09,12,00,57,13.90
2015,09,12,00,58,14.00
2015,09,12,00,59,14.00
2015,09,12,01,00,14.00
2015,09,12,01,01,14.00
2015,09,12,01,02,14.00
2015,09,12,01,03,14.00
2015,09,12,01,04,13.90
2015,09,12,01,05,13.90
2015,09,12,01,06,13.90
2015,09,12,01,07,13.90
2015,09,12,01,08,14.00
2015,09,12,01,09,14.00
2015,09,12,01,10,14.00
2015,09,12,01,11,14.00
2015,09,12,01,12,13.90
2015,09,12,01,13,13.90
2015,09,12,01,14,13.90
2015,09,12,01,15,13.90
2015,09,12,01,16,13.90
2015,09,12,01,17,13.90
2015,09,12,01,18,13.90
2015,09,12,01,19,13.90
2015,09,12,01,20,13.90
2015,09,12,01,21,13.90
2015,09,12,01,22,13.90
2015,09,12,01,23,13.90
2015,09,12,01,24,14.00
2015,09,12,01,25,14.00
2015,09,12,01,26,14.00
2015,09,12,01,27,14.00
2015,09,12,01,28,14.00
2015,09,12,01,29,14.00
2015,09,12,01,30,14.00
2015,09,12,01,31,14.00
2015,09,12,01,32,14.00
2015,09,12,01,33,14.00
2015,09,12,01,34,14.00
2015,09,12,01,35,14.00
2015,09,12,01,36,14.00
2015,09,12,01,37,14.00
2015,09,12,01,38,14.00
2015,09,12,01,39,14.00
2015,09,12,01,40,13.90
2015,09,12,01,41,13.90
2015,09,12,01,42,13.90
2015,09,12,01,43,13.80
2015,09,12,01,44,13.80
2015,09,12,01,45,13.70
2015,09,12,01,46,13.60
2015,09,12,01,47,13.60
2015,09,12,01,48,13.50
2015,09,12,01,49,13.40
2015,09,12,01,50,13.40
2015,09,12,01,51,13.30
2015,09,12,01,52,13.20
2015,09,12,01,53,13.20
2015,09,12,01,54,13.20
2015,09,12,01,55,13.10
2015,09,12,01,56,13.10
2015,09,12,01,57,13.10
2015,09,12,01,58,13.10
2015,09,12,01,59,13.00
2015,09,12,02,00,13.00
2015,09,12,02,01,13.00
2015,09,12,02,02,13.00
2015,09,12,02,03,13.00
2015,09,12,02,04,13.00
2015,09,12,02,05,13.00
2015,09,12,02,06,13.00
2015,09,12,02,07,13.00
2015,09,12,02,08,13.00
2015,09,12,02,09,13.00
2015,09,12,02,10,13.00
2015,09,12,02,11,13.00
2015,09,12,02,12,13.00
2015,09,12,02,13,13.00
2015,09,12,02,14,13.10
2015,09,12,02,15,13.10
2015,09,12,02,16,13.10
2015,09,12,02,17,13.20
2015,09,12,02,18,13.30
2015,09,12,02,19,13.40
2015,09,12,02,20,13.40
2015,09,12,02,21,13.50
2015,09,12,02,22,13.60
2015,09,12,02,23,13.70
2015,09,12,02,24,13.70
2015,09,12,02,25,13.80
2015,09,12,02,26,13.80
2015,09,12,02,27,13.90
2015,09,12,02,28,13.90
2015,09,12,02,29,14.00
2015,09,12,02,30,14.00
2015,09,12,02,31,14.10
2015,09,12,02,32,14.10
2015,09,12,02,33,14.10
2015,09,12,02,34,14.20
2015,09,12,02,35,14.20
2015,09,12,02,36,14.20
2015,09,12,02,37,14.20
2015,09,12,02,38,14.30
2015,09,12,02,39,14.30
2015,09,12,02,40,14.40
2015,09,12,02,41,14.40
2015,09,12,02,42,14.50
2015,09,12,02,43,14.50
2015,09,12,02,44,14.60
2015,09,12,02,45,14.60
2015,09,12,02,46,14.50
2015,09,12,02,47,14.50
2015,09,12,02,48,14.50
2015,09,12,02,49,14.50
2015,09,12,02,50,14.50
2015,09,12,02,51,14.50
2015,09,12,02,52,14.60
2015,09,12,02,53,14.60
2015,09,12,02,54,14.60
2015,09,12,02,55,14.60
2015,09,12,02,56,14.70
2015,09,12,02,57,14.70
2015,09,12,02,58,14.70
2015,09,12,02,59,14.60
2015,09,12,03,00,14.60
2015,09,12,03,01,14.60
2015,09,12,03,02,14.50
2015,09,12,03,03,14.50
2015,09,12,03,04,14.40
2015,09,12,03,05,14.40
2015,09,12,03,06,14.40
2015,09,12,03,07,14.40
2015,09,12,03,08,14.40
2015,09,12,03,09,14.30
2015,09,12,03,10,14.30
2015,09,12,03,11,14.20
2015,09,12,03,12,14.10
2015,09,12,03,13,14.10
2015,09,12,03,14,14.00
2015,09,12,03,15,14.00
2015,09,12,03,16,13.90
2015,09,12,03,17,14.00
2015,09,12,03,18,14.00
2015,09,12,03,19,14.00
2015,09,12,03,20,14.10
2015,09,12,03,21,14.10
2015,09,12,03,22,14.10
2015,09,12,03,23,14.10
2015,09,12,03,24,14.10
2015,09,12,03,25,14.20
2015,09,12,03,26,14.20
2015,09,12,03,27,14.30
2015,09,12,03,28,14.30
2015,09,12,03,29,14.30
2015,09,12,03,30,14.30
2015,09,12,03,31,14.30
2015,09,12,03,32,14.40
2015,09,12,03,33,14.40
2015,09,12,03,34,14.40
2015,09,12,03,35,14.40
2015,09,12,03,36,14.40
2015,09,12,03,37,14.30
2015,09,12,03,38,14.30
2015,09,12,03,39,14.30
2015,09,12,03,40,14.20
2015,09,12,03,41,14.20
2015,09,12,03,42,14.20
2015,09,12,03,43,14.20
2015,09,12,03,44,14.10
2015,09,12,03,45,14.10
2015,09,12,03,46,14.00
2015,09,12,03,47,14.00
2015,09,12,03,48,13.90
2015,09,12,03,49,13.90
2015,09,12,03,50,13.80
2015,09,12,03,51,13.80
2015,09,12,03,52,13.80
2015,09,12,03,53,13.70
2015,09,12,03,54,13.70
2015,09,12,03,55,13.70
2015,09,12,03,56,13.60
2015,09,12,03,57,13.60
2015,09,12,03,58,13.60
2015,09,12,03,59,13.60
2015,09,12,04,00,13.60
2015,09,12,04,01,13.50
2015,09,12,04,02,13.50
2015,09,12,04,03,13.50
2015,09,12,04,04,13.50
2015,09,12,04,05,13.40
2015,09,12,04,06,13.40
2015,09,12,04,07,13.40
2015,09,12,04,08,13.40
2015,09,12,04,09,13.40
2015,09,12,04,10,13.40
2015,09,12,04,11,13.40
2015,09,12,04,12,13.40
2015,09,12,04,13,13.40
2015,09,12,04,14,13.40
2015,09,12,04,15,13.40
2015,09,12,04,16,13.40
2015,09,12,04,17,13.40
2015,09,12,04,18,13.50
2015,09,12,04,19,13.40
2015,09,12,04,20,13.40
2015,09,12,04,21,13.30
2015,09,12,04,22,13.30
2015,09,12,04,23,13.30
2015,09,12,04,24,13.30
2015,09,12,04,25,13.20
2015,09,12,04,26,13.20
2015,09,12,04,27,13.20
2015,09,12,04,28,13.20
2015,09,12,04,29,13.10
2015,09,12,04,30,13.10
2015,09,12,04,31,13.10
2015,09,12,04,32,13.10
2015,09,12,04,33,13.10
2015,09,12,04,34,13.10
2015,09,12,04,35,13.10
2015,09,12,04,36,13.00
2015,09,12,04,37,13.00
2015,09,12,04,38,13.00
2015,09,12,04,39,13.00
2015,09,12,04,40,13.10
2015,09,12,04,41,13.10
2015,09,12,04,42,13.10
2015,09,12,04,43,13.10
2015,09,12,04,44,13.00
2015,09,12,04,45,13.00
2015,09,12,04,46,12.90
2015,09,12,04,47,12.90
2015,09,12,04,48,12.80
2015,09,12,04,49,12.80
2015,09,12,04,50,12.70
2015,09,12,04,51,12.70
2015,09,12,04,52,12.60
2015,09,12,04,53,12.50
2015,09,12,04,54,12.50
2015,09,12,04,55,12.40
2015,09,12,04,56,12.40
2015,09,12,04,57,12.40
2015,09,12,04,58,12.40
2015,09,12,04,59,12.40
2015,09,12,05,00,12.40
2015,09,12,05,01,12.40
2015,09,12,05,02,12.30
2015,09,12,05,03,12.30
2015,09,12,05,04,12.30
2015,09,12,05,05,12.30
2015,09,12,05,06,12.30
2015,09,12,05,07,12.30
2015,09,12,05,08,12.30
2015,09,12,05,09,12.40
2015,09,12,05,10,12.40
2015,09,12,05,11,12.40
2015,09,12,05,12,12.40
2015,09,12,05,13,12.40
2015,09,12,05,14,12.40
2015,09,12,05,15,12.40
2015,09,12,05,16,12.40
2015,09,12,05,17,12.40
2015,09,12,05,18,12.40
2015,09,12,05,19,12.40
2015,09,12,05,20,12.40
2015,09,12,05,21,12.40
2015,09,12,05,22,12.30
2015,09,12,05,23,12.30
2015,09,12,05,24,12.30
2015,09,12,05,25,12.30
2015,09,12,05,26,12.30
2015,09,12,05,27,12.30
2015,09,12,05,28,12.30
2015,09,12,05,29,12.30
2015,09,12,05,30,12.30
2015,09,12,05,31,12.30
2015,09,12,05,32,12.30
2015,09,12,05,33,12.20
2015,09,12,05,34,12.20
2015,09,12,05,35,12.20
2015,09,12,05,36,12.20
2015,09,12,05,37,12.20
2015,09,12,05,38,12.20
2015,09,12,05,39,12.20
2015,09,12,05,40,12.20
2015,09,12,05,41,12.20
2015,09,12,05,42,12.10
2015,09,12,05,43,12.10
2015,09,12,05,44,12.10
2015,09,12,05,45,12.10
2015,09,12,05,46,12.20
2015,09,12,05,47,12.20
2015,09,12,05,48,12.20
2015,09,12,05,49,12.10
2015,09,12,05,50,12.10
2015,09,12,05,51,12.10
2015,09,12,05,52,12.10
2015,09,12,05,53,12.00
2015,09,12,05,54,11.90
2015,09,12,05,55,11.90
2015,09,12,05,56,11.90
2015,09,12,05,57,11.80
2015,09,12,05,58,11.80
2015,09,12,05,59,11.80
2015,09,12,06,00,11.80
2015,09,12,06,01,11.80
2015,09,12,06,02,11.80
2015,09,12,06,03,11.80
2015,09,12,06,04,11.80
2015,09,12,06,05,11.80
2015,09,12,06,06,11.80
2015,09,12,06,07,11.80
2015,09,12,06,08,11.80
2015,09,12,06,09,11.80
2015,09,12,06,10,11.80
2015,09,12,06,11,11.80
2015,09,12,06,12,11.80
2015,09,12,06,13,11.80
2015,09,12,06,14,11.80
2015,09,12,06,15,11.80
2015,09,12,06,16,11.80
2015,09,12,06,17,11.80
2015,09,12,06,18,11.80
2015,09,12,06,19,11.80
2015,09,12,06,20,11.80
2015,09,12,06,21,11.80
2015,09,12,06,22,11.80
2015,09,12,06,23,11.80
2015,09,12,06,24,11.80
2015,09,12,06,25,11.70
2015,09,12,06,26,11.70
2015,09,12,06,27,11.60
2015,09,12,06,28,11.60
2015,09,12,06,29,11.50
2015,09,12,06,30,11.50
2015,09,12,06,31,11.40
2015,09,12,06,32,11.40
2015,09,12,06,33,11.40
2015,09,12,06,34,11.30
2015,09,12,06,35,11.30
2015,09,12,06,36,11.30
2015,09,12,06,37,11.30
2015,09,12,06,38,11.30
2015,09,12,06,39,11.30
2015,09,12,06,40,11.30
2015,09,12,06,41,11.20
2015,09,12,06,42,11.30
2015,09,12,06,43,11.30
2015,09,12,06,44,11.30
2015,09,12,06,45,11.30
2015,09,12,06,46,11.40
2015,09,12,06,47,11.30
2015,09,12,06,48,11.30
2015,09,12,06,49,11.30
2015,09,12,06,50,11.30
2015,09,12,06,51,11.30
2015,09,12,06,52,11.20
2015,09,12,06,53,11.20
2015,09,12,06,54,11.20
2015,09,12,06,55,11.10
2015,09,12,06,56,11.10
2015,09,12,06,57,11.10
2015,09,12,06,58,11.10
2015,09,12,06,59,11.10
2015,09,12,07,00,11.10
2015,09,12,07,01,11.20
2015,09,12,07,02,11.30
2015,09,12,07,03,11.40
2015,09,12,07,04,11.40
2015,09,12,07,05,11.40
2015,09,12,07,06,11.40
2015,09,12,07,07,11.50
2015,09,12,07,08,11.50
2015,09,12,07,09,11.50
2015,09,12,07,10,11.40
2015,09,12,07,11,11.40
2015,09,12,07,12,11.40
2015,09,12,07,13,11.40
2015,09,12,07,14,11.40
2015,09,12,07,15,11.40
2015,09,12,07,16,11.30
2015,09,12,07,17,11.30
2015,09,12,07,18,11.30
2015,09,12,07,19,11.30
2015,09,12,07,20,11.30
2015,09,12,07,21,11.30
2015,09,12,07,22,11.30
2015,09,12,07,23,11.30
2015,09,12,07,24,11.20
2015,09,12,07,25,11.20
2015,09,12,07,26,11.20
2015,09,12,07,27,11.20
2015,09,12,07,28,11.20
2015,09,12,07,29,11.20
2015,09,12,07,30,11.20
2015,09,12,07,31,11.30
2015,09,12,07,32,11.30
2015,09,12,07,33,11.30
2015,09,12,07,34,11.40
2015,09,12,07,35,11.40
2015,09,12,07,36,11.40
2015,09,12,07,37,11.40
2015,09,12,07,38,11.40
2015,09,12,07,39,11.40
2015,09,12,07,40,11.40
2015,09,12,07,41,11.40
2015,09,12,07,42,11.40
2015,09,12,07,43,11.30
2015,09,12,07,44,11.30
2015,09,12,07,45,11.40
2015,09,12,07,46,11.50
2015,09,12,07,47,11.60
2015,09,12,07,48,11.70
2015,09,12,07,49,11.60
2015,09,12,07,50,11.60
2015,09,12,07,51,11.70
2015,09,12,07,52,11.70
2015,09,12,07,53,11.70
2015,09,12,07,54,11.70
2015,09,12,07,55,11.80
2015,09,12,07,56,11.80
2015,09,12,07,57,11.80
2015,09,12,07,58,11.80
2015,09,12,07,59,11.80
2015,09,12,08,00,11.80
2015,09,12,08,01,11.90
2015,09,12,08,02,11.90
2015,09,12,08,03,11.90
2015,09,12,08,04,11.90
2015,09,12,08,05,11.90
2015,09,12,08,06,12.00
2015,09,12,08,07,12.00
2015,09,12,08,08,12.00
2015,09,12,08,09,12.10
2015,09,12,08,10,12.10
2015,09,12,08,11,12.10
2015,09,12,08,12,12.20
2015,09,12,08,13,12.20
2015,09,12,08,14,12.20
2015,09,12,08,15,12.20
2015,09,12,08,16,12.20
2015,09,12,08,17,12.20
2015,09,12,08,18,12.20
2015,09,12,08,19,12.30
2015,09,12,08,20,12.30
2015,09,12,08,21,12.30
2015,09,12,08,22,12.40
2015,09,12,08,23,12.40
2015,09,12,08,24,12.50
2015,09,12,08,25,12.50
2015,09,12,08,26,12.60
2015,09,12,08,27,12.60
2015,09,12,08,28,12.60
2015,09,12,08,29,12.70
2015,09,12,08,30,12.70
2015,09,12,08,31,12.70
2015,09,12,08,32,12.70
2015,09,12,08,33,12.80
2015,09,12,08,34,12.80
2015,09,12,08,35,12.80
2015,09,12,08,36,12.90
2015,09,12,08,37,12.90
2015,09,12,08,38,13.00
2015,09,12,08,39,13.00
2015,09,12,08,40,13.10
2015,09,12,08,41,13.10
2015,09,12,08,42,13.10
2015,09,12,08,43,13.20
2015,09,12,08,44,13.20
2015,09,12,08,45,13.20
2015,09,12,08,46,13.30
2015,09,12,08,47,13.30
2015,09,12,08,48,13.40
2015,09,12,08,49,13.40
2015,09,12,08,50,13.50
2015,09,12,08,51,13.60
2015,09,12,08,52,13.70
2015,09,12,08,53,13.70
2015,09,12,08,54,13.70
2015,09,12,08,55,13.80
2015,09,12,08,56,13.80
2015,09,12,08,57,13.90
2015,09,12,08,58,13.90
2015,09,12,08,59,14.00
2015,09,12,09,00,14.10
2015,09,12,09,01,14.20
2015,09,12,09,02,14.30
2015,09,12,09,03,14.40
2015,09,12,09,04,14.50
2015,09,12,09,05,14.60
2015,09,12,09,06,14.70
2015,09,12,09,07,14.80
2015,09,12,09,08,14.90
2015,09,12,09,09,14.90
2015,09,12,09,10,14.80
2015,09,12,09,11,14.80
2015,09,12,09,12,14.80
2015,09,12,09,13,14.70
2015,09,12,09,14,14.70
2015,09,12,09,15,14.70
2015,09,12,09,16,14.70
2015,09,12,09,17,14.70
2015,09,12,09,18,14.70
2015,09,12,09,19,14.80
2015,09,12,09,20,14.90
2015,09,12,09,21,14.90
2015,09,12,09,22,15.00
2015,09,12,09,23,15.00
2015,09,12,09,24,15.00
2015,09,12,09,25,15.00
2015,09,12,09,26,15.00
2015,09,12,09,27,15.00
2015,09,12,09,28,15.10
2015,09,12,09,29,15.20
2015,09,12,09,30,15.30
2015,09,12,09,31,15.40
2015,09,12,09,32,15.50
2015,09,12,09,33,15.60
2015,09,12,09,34,15.70
2015,09,12,09,35,15.80
2015,09,12,09,36,15.90
2015,09,12,09,37,16.00
2015,09,12,09,38,16.10
2015,09,12,09,39,16.30
2015,09,12,09,40,16.50
2015,09,12,09,41,16.80
2015,09,12,09,42,17.00
2015,09,12,09,43,17.10
2015,09,12,09,44,17.30
2015,09,12,09,45,17.40
2015,09,12,09,46,17.70
2015,09,12,09,47,18.00
2015,09,12,09,48,18.20
2015,09,12,09,49,18.40
2015,09,12,09,50,18.50
2015,09,12,09,51,18.70
2015,09,12,09,52,18.80
2015,09,12,09,53,18.80
2015,09,12,09,54,18.90
2015,09,12,09,55,18.90
2015,09,12,09,56,18.90
2015,09,12,09,57,18.90
2015,09,12,09,58,18.90
2015,09,12,09,59,18.90
2015,09,12,10,00,18.90
2015,09,12,10,01,19.00
2015,09,12,10,02,19.00
2015,09,12,10,03,19.20
2015,09,12,10,04,19.30
2015,09,12,10,05,19.40
2015,09,12,10,06,19.50
2015,09,12,10,07,19.60
2015,09,12,10,08,19.60
2015,09,12,10,09,19.70
2015,09,12,10,10,19.80
2015,09,12,10,11,19.90
2015,09,12,10,12,19.90
2015,09,12,10,13,19.90
2015,09,12,10,14,19.90
2015,09,12,10,15,19.80
2015,09,12,10,16,19.80
2015,09,12,10,17,19.80
2015,09,12,10,18,19.90
2015,09,12,10,19,19.90
2015,09,12,10,20,19.90
2015,09,12,10,21,20.00
2015,09,12,10,22,20.00
2015,09,12,10,23,19.90
2015,09,12,10,24,19.90
2015,09,12,10,25,19.90
2015,09,12,10,26,19.90
2015,09,12,10,27,19.90
2015,09,12,10,28,19.90
2015,09,12,10,29,20.00
2015,09,12,10,30,20.00
2015,09,12,10,31,20.00
2015,09,12,10,32,20.00
2015,09,12,10,33,20.00
2015,09,12,10,34,20.00
2015,09,12,10,35,20.00
2015,09,12,10,36,19.90
2015,09,12,10,37,19.90
2015,09,12,10,38,19.80
2015,09,12,10,39,19.90
2015,09,12,10,40,19.90
2015,09,12,10,41,19.90
2015,09,12,10,42,19.90
2015,09,12,10,43,19.90
2015,09,12,10,44,20.00
2015,09,12,10,45,20.00
2015,09,12,10,46,20.00
2015,09,12,10,47,20.00
2015,09,12,10,48,20.00
2015,09,12,10,49,19.90
2015,09,12,10,50,19.90
2015,09,12,10,51,19.90
2015,09,12,10,52,20.00
2015,09,12,10,53,20.00
2015,09,12,10,54,20.10
2015,09,12,10,55,20.10
2015,09,12,10,56,20.10
2015,09,12,10,57,20.20
2015,09,12,10,58,20.20
2015,09,12,10,59,20.20
2015,09,12,11,00,20.20
2015,09,12,11,01,20.20
2015,09,12,11,02,20.10
2015,09,12,11,03,20.10
2015,09,12,11,04,20.10
2015,09,12,11,05,20.20
2015,09,12,11,06,20.10
2015,09,12,11,07,20.10
2015,09,12,11,08,20.00
2015,09,12,11,09,19.90
2015,09,12,11,10,19.90
2015,09,12,11,11,19.90
2015,09,12,11,12,20.00
2015,09,12,11,13,19.90
2015,09,12,11,14,19.90
2015,09,12,11,15,19.80
2015,09,12,11,16,19.80
2015,09,12,11,17,19.90
2015,09,12,11,18,19.90
2015,09,12,11,19,19.90
2015,09,12,11,20,19.80
2015,09,12,11,21,19.70
2015,09,12,11,22,19.70
2015,09,12,11,23,19.70
2015,09,12,11,24,19.70
2015,09,12,11,25,19.80
2015,09,12,11,26,19.80
2015,09,12,11,27,19.80
2015,09,12,11,28,19.90
2015,09,12,11,29,19.90
2015,09,12,11,30,19.90
2015,09,12,11,31,20.00
2015,09,12,11,32,19.90
2015,09,12,11,33,19.90
2015,09,12,11,34,20.00
2015,09,12,11,35,20.10
2015,09,12,11,36,20.20
2015,09,12,11,37,20.30
2015,09,12,11,38,20.50
2015,09,12,11,39,20.60
2015,09,12,11,40,20.70
2015,09,12,11,41,20.70
2015,09,12,11,42,20.80
2015,09,12,11,43,20.80
2015,09,12,11,44,20.90
2015,09,12,11,45,21.00
2015,09,12,11,46,21.10
2015,09,12,11,47,21.20
2015,09,12,11,48,21.20
2015,09,12,11,49,21.30
2015,09,12,11,50,21.30
2015,09,12,11,51,21.30
2015,09,12,11,52,21.30
2015,09,12,11,53,21.40
2015,09,12,11,54,21.40
2015,09,12,11,55,21.30
2015,09,12,11,56,21.20
2015,09,12,11,57,21.20
2015,09,12,11,58,21.20
2015,09,12,11,59,21.20
2015,09,12,12,00,21.30
2015,09,12,12,01,21.40
2015,09,12,12,02,21.40
2015,09,12,12,03,21.30
2015,09,12,12,04,21.30
2015,09,12,12,05,21.30
2015,09,12,12,06,21.30
2015,09,12,12,07,21.30
2015,09,12,12,08,21.30
2015,09,12,12,09,21.30
2015,09,12,12,10,21.30
2015,09,12,12,11,21.20
2015,09,12,12,12,21.10
2015,09,12,12,13,21.10
2015,09,12,12,14,21.10
2015,09,12,12,15,21.20
2015,09,12,12,16,21.30
2015,09,12,12,17,21.40
2015,09,12,12,18,21.50
2015,09,12,12,19,21.60
2015,09,12,12,20,21.70
2015,09,12,12,21,21.70
2015,09,12,12,22,21.80
2015,09,12,12,23,21.80
2015,09,12,12,24,21.80
2015,09,12,12,25,21.80
2015,09,12,12,26,21.90
2015,09,12,12,27,21.90
2015,09,12,12,28,22.00
2015,09,12,12,29,22.00
2015,09,12,12,30,22.10
2015,09,12,12,31,22.10
2015,09,12,12,32,22.10
2015,09,12,12,33,22.10
2015,09,12,12,34,22.10
2015,09,12,12,35,22.10
2015,09,12,12,36,22.10
2015,09,12,12,37,22.20
2015,09,12,12,38,22.20
2015,09,12,12,39,22.10
2015,09,12,12,40,22.10
2015,09,12,12,41,22.10
2015,09,12,12,42,22.20
2015,09,12,12,43,22.20
2015,09,12,12,44,22.30
2015,09,12,12,45,22.30
2015,09,12,12,46,22.30
2015,09,12,12,47,22.30
2015,09,12,12,48,22.20
2015,09,12,12,49,22.10
2015,09,12,12,50,21.90
2015,09,12,12,51,21.80
2015,09,12,12,52,21.60
2015,09,12,12,53,21.50
2015,09,12,12,54,21.40
2015,09,12,12,55,21.30
2015,09,12,12,56,21.30
2015,09,12,12,57,21.40
2015,09,12,12,58,21.40
2015,09,12,12,59,21.40
2015,09,12,13,00,21.40
2015,09,12,13,01,21.30
2015,09,12,13,02,21.40
2015,09,12,13,03,21.40
2015,09,12,13,04,21.50
2015,09,12,13,05,21.60
2015,09,12,13,06,21.70
2015,09,12,13,07,21.80
2015,09,12,13,08,21.80
2015,09,12,13,09,21.90
2015,09,12,13,10,21.90
2015,09,12,13,11,21.90
2015,09,12,13,12,21.90
2015,09,12,13,13,21.90
2015,09,12,13,14,21.90
2015,09,12,13,15,22.00
2015,09,12,13,16,21.90
2015,09,12,13,17,21.90
2015,09,12,13,18,22.00
2015,09,12,13,19,22.10
2015,09,12,13,20,22.20
2015,09,12,13,21,22.20
2015,09,12,13,22,22.20
2015,09,12,13,23,22.20
2015,09,12,13,24,22.20
2015,09,12,13,25,22.20
2015,09,12,13,26,22.30
2015,09,12,13,27,22.40
2015,09,12,13,28,22.40
2015,09,12,13,29,22.40
2015,09,12,13,30,22.40
2015,09,12,13,31,22.40
2015,09,12,13,32,22.40
2015,09,12,13,33,22.30
2015,09,12,13,34,22.40
2015,09,12,13,35,22.40
2015,09,12,13,36,22.40
2015,09,12,13,37,22.40
2015,09,12,13,38,22.50
2015,09,12,13,39,22.50
2015,09,12,13,40,22.50
2015,09,12,13,41,22.50
2015,09,12,13,42,22.60
2015,09,12,13,43,22.60
2015,09,12,13,44,22.60
2015,09,12,13,45,22.70
2015,09,12,13,46,22.80
2015,09,12,13,47,22.90
2015,09,12,13,48,23.00
2015,09,12,13,49,23.20
2015,09,12,13,50,23.30
2015,09,12,13,51,23.30
2015,09,12,13,52,23.40
2015,09,12,13,53,23.40
2015,09,12,13,54,23.50
2015,09,12,13,55,23.60
2015,09,12,13,56,23.50
2015,09,12,13,57,23.50
2015,09,12,13,58,23.50
2015,09,12,13,59,23.50
2015,09,12,14,00,23.50
2015,09,12,14,01,23.50
2015,09,12,14,02,23.40
2015,09,12,14,03,23.40
2015,09,12,14,04,23.40
2015,09,12,14,05,23.30
2015,09,12,14,06,23.30
2015,09,12,14,07,23.30
2015,09,12,14,08,23.30
2015,09,12,14,09,23.30
2015,09,12,14,10,23.20
2015,09,12,14,11,23.20
2015,09,12,14,12,23.10
2015,09,12,14,13,23.20
2015,09,12,14,14,23.20
2015,09,12,14,15,23.20
2015,09,12,14,16,23.20
2015,09,12,14,17,23.10
2015,09,12,14,18,23.10
2015,09,12,14,19,23.00
2015,09,12,14,20,23.00
2015,09,12,14,21,23.10
2015,09,12,14,22,23.10
2015,09,12,14,23,23.20
2015,09,12,14,24,23.20
2015,09,12,14,25,23.20
2015,09,12,14,26,23.20
2015,09,12,14,27,23.10
2015,09,12,14,28,23.10
2015,09,12,14,29,23.20
2015,09,12,14,30,23.20
2015,09,12,14,31,23.20
2015,09,12,14,32,23.10
2015,09,12,14,33,23.10
2015,09,12,14,34,23.20
2015,09,12,14,35,23.20
2015,09,12,14,36,23.20
2015,09,12,14,37,23.30
2015,09,12,14,38,23.30
2015,09,12,14,39,23.30
2015,09,12,14,40,23.40
2015,09,12,14,41,23.40
2015,09,12,14,42,23.30
2015,09,12,14,43,23.20
2015,09,12,14,44,23.10
2015,09,12,14,45,23.10
2015,09,12,14,46,23.00
2015,09,12,14,47,22.80
2015,09,12,14,48,22.60
2015,09,12,14,49,22.60
2015,09,12,14,50,22.50
2015,09,12,14,51,22.50
2015,09,12,14,52,22.40
2015,09,12,14,53,22.20
2015,09,12,14,54,22.20
2015,09,12,14,55,22.20
2015,09,12,14,56,22.20
2015,09,12,14,57,22.10
2015,09,12,14,58,22.10
2015,09,12,14,59,22.10
2015,09,12,15,00,22.10
2015,09,12,15,01,22.20
2015,09,12,15,02,22.20
2015,09,12,15,03,21.90
2015,09,12,15,04,21.80
2015,09,12,15,05,21.70
2015,09,12,15,06,21.70
2015,09,12,15,07,21.70
2015,09,12,15,08,21.70
2015,09,12,15,09,21.60
2015,09,12,15,10,21.40
2015,09,12,15,11,21.20
2015,09,12,15,12,21.00
2015,09,12,15,13,20.80
2015,09,12,15,14,20.70
2015,09,12,15,15,20.60
2015,09,12,15,16,20.50
2015,09,12,15,17,20.40
2015,09,12,15,18,20.40
2015,09,12,15,19,20.40
2015,09,12,15,20,20.40
2015,09,12,15,21,20.40
2015,09,12,15,22,20.40
2015,09,12,15,23,20.50
2015,09,12,15,24,20.60
2015,09,12,15,25,20.60
2015,09,12,15,26,20.60
2015,09,12,15,27,20.60
2015,09,12,15,28,20.60
2015,09,12,15,29,20.70
2015,09,12,15,30,20.70
2015,09,12,15,31,20.70
2015,09,12,15,32,20.70
2015,09,12,15,33,20.80
2015,09,12,15,34,20.90
2015,09,12,15,35,20.90
2015,09,12,15,36,20.90
2015,09,12,15,37,21.00
2015,09,12,15,38,21.10
2015,09,12,15,39,21.00
2015,09,12,15,40,21.00
2015,09,12,15,41,21.10
2015,09,12,15,42,21.10
2015,09,12,15,43,21.20
2015,09,12,15,44,21.20
2015,09,12,15,45,21.30
2015,09,12,15,46,21.20
2015,09,12,15,47,21.20
2015,09,12,15,48,21.20
2015,09,12,15,49,21.20
2015,09,12,15,50,21.10
2015,09,12,15,51,21.10
2015,09,12,15,52,21.00
2015,09,12,15,53,21.00
2015,09,12,15,54,21.00
2015,09,12,15,55,21.00
2015,09,12,15,56,21.00
2015,09,12,15,57,21.10
2015,09,12,15,58,21.10
2015,09,12,15,59,21.20
2015,09,12,16,00,21.10
2015,09,12,16,01,21.20
2015,09,12,16,02,21.30
2015,09,12,16,03,21.40
2015,09,12,16,04,21.40
2015,09,12,16,05,21.40
2015,09,12,16,06,21.30
2015,09,12,16,07,21.30
2015,09,12,16,08,21.30
2015,09,12,16,09,21.30
2015,09,12,16,10,21.20
2015,09,12,16,11,21.30
2015,09,12,16,12,21.30
2015,09,12,16,13,21.30
2015,09,12,16,14,21.40
2015,09,12,16,15,21.50
2015,09,12,16,16,21.60
2015,09,12,16,17,21.60
2015,09,12,16,18,21.60
2015,09,12,16,19,21.70
2015,09,12,16,20,21.70
2015,09,12,16,21,21.70
2015,09,12,16,22,21.70
2015,09,12,16,23,21.70
2015,09,12,16,24,21.70
2015,09,12,16,25,21.70
2015,09,12,16,26,21.70
2015,09,12,16,27,21.70
2015,09,12,16,28,21.70
2015,09,12,16,29,21.60
2015,09,12,16,30,21.60
2015,09,12,16,31,21.50
2015,09,12,16,32,21.40
2015,09,12,16,33,21.40
2015,09,12,16,34,21.40
2015,09,12,16,35,21.30
2015,09,12,16,36,21.40
2015,09,12,16,37,21.40
2015,09,12,16,38,21.40
2015,09,12,16,39,21.50
2015,09,12,16,40,21.50
2015,09,12,16,41,21.40
2015,09,12,16,42,21.50
2015,09,12,16,43,21.50
2015,09,12,16,44,21.60
2015,09,12,16,45,21.60
2015,09,12,16,46,21.70
2015,09,12,16,47,21.70
2015,09,12,16,48,21.70
2015,09,12,16,49,21.70
2015,09,12,16,50,21.70
2015,09,12,16,51,21.70
2015,09,12,16,52,21.70
2015,09,12,16,53,21.70
2015,09,12,16,54,21.80
2015,09,12,16,55,21.80
2015,09,12,16,56,21.80
2015,09,12,16,57,21.80
2015,09,12,16,58,21.90
2015,09,12,16,59,21.90
2015,09,12,17,00,21.90
2015,09,12,17,01,21.80
2015,09,12,17,02,21.80
2015,09,12,17,03,21.80
2015,09,12,17,04,21.80
2015,09,12,17,05,21.80
2015,09,12,17,06,21.80
2015,09,12,17,07,21.80
2015,09,12,17,08,21.80
2015,09,12,17,09,21.80
2015,09,12,17,10,21.80
2015,09,12,17,11,21.80
2015,09,12,17,12,21.80
2015,09,12,17,13,21.80
2015,09,12,17,14,21.90
2015,09,12,17,15,21.90
2015,09,12,17,16,21.90
2015,09,12,17,17,21.90
2015,09,12,17,18,21.90
2015,09,12,17,19,21.90